User: anonymous   Login
Location: Chicago
(41.7813°N, 87.6051°W)
Time: 11:29:25
(UTC-05:00)
Language:

ISS - Orbit

View from above orbital plane
View from above orbital plane
View from above satellite
View from above satellite

Ground track
Ground track

The orbit data is extracted from the following two-line orbital elements,

1 25544U 98067A   18142.02906844  .00016717  00000-0  10270-3 0  9040
2 25544  51.6357 149.1134 0003806 109.5841 250.5723 15.54087140 34441
Epoch (UTC): 22 May 2018 00:41:51
Eccentricity: 0.0003806
inclination: 51.6357°
perigee height: 402 km
apogee height: 407 km
right ascension of ascending node: 149.1134°
argument of perigee: 109.5841°
revolutions per day: 15.54087140
mean anomaly at epoch: 250.5723°
orbit number at epoch: 3444

The dashed part of the orbit path shows where the satellite is in the earth's shadow,  

DLR